Tracking 23610 objects as of 19-Sep-2021
HD Live streaming from Space Station
objects crossing your sky now

DMSP 5D-2 F13 DEB

Track DMSP 5D-2 F13 DEB now!
10-day predictions


NORAD ID: 40681
Int'l Code: 1995-015FV
Perigee: 829.1 km
Apogee: 837.0 km
Inclination: 98.8 °
Period: 101.4 minutes
Semi major axis: 7204 km
RCS: Unknown
Launch date: March 24, 1995
Source: United States (US)
Launch site: AIR FORCE WESTERN TEST RANGE (AFWTR)

Note: This is SATELLITE DEBRIS
aabbcc
Your satellite tracking list
Your tracking list is empty




NASA's NSSDC Master Catalog

Two Line Element Set (TLE):
1 40681U 95015FV  21260.45975063  .00000805  00000-0  40065-3 0  9990
2 40681  98.7905 268.8490 0005450  70.8817 289.2949 14.19837420333439
Source of the keplerian elements: AFSPC